Location: Borbetomagus
(49.6328°N, 8.3592°E)
Time: 17:16:00
(UTC+00:00)

NOSS 3-1 (C) - Pass Details

Date: 19 May 2025
Orbit: 632 x 1571 km, 63.4° (Epoch: 12 June)

Event Time Altitude Azimuth Distance (km) Brightness Sun altitude
Rises 22:07:15 0° 245° (WSW) 3,044 6.0 -18.4°
Reaches altitude 10° 22:09:29 10° 252° (WSW) 2,204 5.4 -18.5°
Maximum altitude 22:14:17 46° 326° (NW) 1,094 4.2 -18.7°
Drops below altitude 10° 22:20:11 10° 39° (NE) 2,707 6.3 -19.0°
Sets 22:23:13 0° 45° (NE) 3,818 7.0 -19.1°
